STARLINK-2753 (48696 NORAD) Tracking and Keplerian Element Data

This shows tracking and keplerian element data for the satellite.

Feedback or suggestion? Click here.




ElementValue
Catalog48696
NameSTARLINK-2753
Epoch Orbit1101
Epoch Day211.25001157
Epoch Year2021
RAAN104.1989
Inclination53.0465
Eccentricity0.0006514
Argument of Perigee326.205
Mean Anonmoly225.2246
Mean Motion15.73158382
Decay Rate0.00029169
L11 48696U 21044BL 21211.25001157 .00029169 00000-0 21167-3 0 9999
L22 48696 53.0465 104.1989 0006514 326.2050 225.2246 15.73158382 11013

Live tracking and technical data element details for STARLINK-2753 (NORAD 48696). STARLINK-2753 can be tracked NOW for your location showing map with azimuth and elevation plus other details from your city location.

Track the satellite on the map from your city or location and see movement details for azimuth, elevation, latitude, longitude, range, height, and movement on the map or in text.







IsCatalogInMostPopularTable: catalog: 48696, numindb: 15
Update: records affected: 1



GetName: 48696 STARLINK-2753

Hit Count: updated at: Sat, 31 Jul 2021 15:00:22 GMT